Theta_e
315 318 319 320 318 317 317 317 317 318 317 318 318 318 318 318 317 317 318 317 315 315 316 315 315 315 315 316 315 315 316 316 315 314 314 315 315 315 315 315 315 315 315 315 314 313 312 312 311 311 311 310 309 308 307 307 306 306 307 307 307 306 306 306 305 305 303 302 302 301 300 299 299 298 298 298 298 298 298 299 298 297 297 298 298 298
317 319 319 318 317 317 317 317 318 318 318 318 319 319 318 318 317 316 318 317 314 315 316 316 316 315 315 316 315 315 316 315 315 314 315 315 315 315 315 315 315 315 315 315 314 313 312 311 311 310 310 309 308 307 307 307 307 307 307 307 307 306 306 306 306 305 304 303 302 302 301 300 299 298 298 298 298 298 298 298 298 297 297 297 298 298
319 319 317 317 317 317 317 318 319 319 319 320 320 320 319 317 317 317 318 316 313 314 316 316 315 315 315 316 315 315 315 315 315 315 315 315 315 315 315 315 315 316 315 315 314 313 312 312 311 310 309 309 308 307 307 307 307 307 307 307 306 306 306 306 306 305 304 303 302 302 301 299 298 298 298 298 298 298 298 298 297 296 297 297 297 297
319 318 317 317 317 316 317 317 319 319 318 319 319 318 317 317 318 317 317 315 312 313 315 316 315 314 314 315 315 315 315 315 316 316 316 316 316 315 316 316 316 316 316 315 314 313 312 312 310 309 309 308 307 307 307 307 307 307 307 307 307 306 306 305 305 304 304 302 301 300 299 298 297 297 297 297 297 298 298 298 297 296 296 297 297 297
318 318 317 318 318 318 318 317 320 319 316 319 321 318 316 317 318 317 318 317 315 314 314 315 315 315 315 315 315 315 315 315 315 315 316 316 316 316 315 316 316 317 317 315 313 313 313 312 311 310 309 308 307 307 307 308 308 307 307 307 307 306 305 305 304 304 303 302 300 299 298 296 296 296 296 297 297 298 298 297 297 296 296 296 297 297
317 317 317 319 319 320 320 319 320 321 317 317 321 320 317 317 317 317 320 321 321 320 315 315 316 317 318 318 316 317 318 317 315 315 315 315 315 316 315 316 316 316 317 315 314 314 313 313 311 309 308 308 307 308 308 308 308 308 307 307 306 306 305 304 304 303 302 302 301 300 299 298 297 297 297 297 298 298 298 297 296 296 296 296 296 296
316 317 318 319 320 322 323 320 320 322 317 315 322 326 320 318 320 322 322 322 325 324 317 316 319 318 318 318 318 319 320 319 317 316 316 314 315 315 315 315 315 315 316 315 314 314 313 312 311 310 309 308 309 309 308 307 307 307 307 307 306 306 305 304 303 303 302 301 301 300 300 299 299 298 298 298 298 298 297 297 296 296 296 296 296 296
317 317 319 321 321 322 322 319 318 320 317 318 325 328 322 320 323 323 323 324 324 321 317 318 320 318 317 316 318 320 319 319 317 317 316 314 314 314 315 315 314 315 316 315 314 313 312 312 311 311 310 310 310 309 308 308 308 308 307 307 306 305 305 304 303 302 301 301 301 300 300 299 298 298 298 298 297 297 296 296 296 296 296 295 296 296
321 321 322 322 321 321 319 319 322 321 319 320 322 322 320 320 321 320 321 322 321 318 319 320 320 319 318 316 318 318 317 317 316 316 317 315 313 314 314 315 314 314 316 315 314 313 313 312 312 311 311 311 311 310 309 309 309 308 308 307 306 306 305 304 303 302 301 301 300 300 300 299 298 297 297 297 296 296 296 296 296 296 295 295 295 296
320 318 318 320 321 319 318 320 325 325 321 320 320 319 319 319 317 317 318 319 318 317 318 321 320 318 317 318 318 317 316 316 315 316 316 314 313 314 314 315 315 315 315 315 314 314 313 313 312 311 311 311 311 310 310 309 309 308 308 307 307 306 305 304 303 302 301 300 300 299 299 298 297 296 296 295 295 295 296 296 296 295 295 295 295 295
315 311 312 318 319 316 317 316 315 319 318 317 318 318 319 319 316 316 316 316 317 318 317 319 319 317 317 319 319 317 316 316 316 315 315 314 313 314 315 315 315 315 316 316 314 314 313 312 311 311 311 311 311 310 310 309 309 309 308 308 307 306 305 304 303 302 301 300 300 299 299 298 297 296 296 295 295 296 296 296 296 295 295 295 295 295
315 312 313 316 314 312 318 317 311 312 314 316 318 316 318 320 319 318 316 316 318 318 319 320 319 317 318 319 318 316 316 316 316 315 315 316 315 314 315 315 316 316 316 316 314 313 312 311 311 311 311 312 311 310 310 310 310 309 308 308 307 306 305 305 304 303 302 301 300 299 298 298 297 296 296 296 296 296 296 296 296 295 294 294 294 295
318 316 315 316 313 312 318 318 313 311 313 317 319 316 319 320 320 320 320 321 320 318 320 322 319 318 317 316 316 317 317 316 316 315 314 316 315 314 316 316 316 317 316 316 314 313 312 311 312 312 312 312 312 312 311 311 311 310 309 308 308 308 307 306 305 304 303 302 301 299 298 297 297 296 296 296 296 296 296 296 295 295 294 294 294 295
323 320 317 317 315 314 316 316 316 317 315 315 317 318 321 321 319 320 322 324 322 319 319 319 320 321 318 317 318 317 316 316 315 314 314 315 315 315 316 317 317 317 316 315 314 313 312 313 313 313 313 313 313 312 312 311 311 310 309 309 309 309 308 307 306 305 304 303 302 300 299 297 296 296 295 295 295 295 295 295 295 295 294 294 294 294
323 320 318 319 318 315 314 313 316 320 316 312 315 318 320 320 318 318 321 321 320 321 319 317 322 323 317 318 321 317 316 314 313 315 315 315 316 315 316 318 317 316 315 314 313 312 313 313 314 314 313 313 313 313 312 311 311 311 310 310 310 310 309 308 307 306 306 305 303 301 299 298 296 296 295 295 295 295 295 295 295 294 294 294 294 294
319 319 319 318 316 314 314 314 315 321 320 315 315 317 317 319 318 317 320 319 318 320 319 317 322 321 315 317 319 316 317 315 313 314 313 314 315 315 317 318 317 316 315 314 313 312 313 313 313 313 313 313 313 313 312 312 311 311 311 311 310 310 310 309 308 308 307 306 305 302 300 298 297 296 295 295 294 294 294 295 294 294 294 293 294 293
317 320 322 316 314 313 311 313 316 319 320 316 316 318 318 319 319 318 320 319 317 319 318 317 319 317 314 316 316 315 317 316 314 314 313 313 314 315 316 317 316 316 315 314 313 313 313 313 313 313 313 313 313 313 312 312 312 312 312 311 311 310 309 308 308 308 308 307 306 304 301 299 297 296 295 295 294 294 294 294 294 293 293 293 293 293
318 319 321 317 315 312 305 308 314 314 314 318 319 318 318 320 320 318 319 320 320 319 318 316 316 315 315 317 317 315 315 315 315 315 314 313 313 313 314 315 315 315 314 314 313 312 313 313 313 313 312 313 313 313 313 313 312 312 311 311 311 310 310 310 309 309 308 307 307 305 303 301 299 297 296 295 294 294 294 294 294 293 293 293 293 293
319 317 319 316 314 312 307 310 315 312 311 315 316 316 317 319 320 319 318 319 320 318 317 316 316 314 314 315 315 316 315 314 314 314 314 314 314 313 313 314 314 314 313 313 312 312 313 313 313 313 313 312 312 312 313 312 312 312 311 311 311 310 310 309 309 308 308 307 307 306 305 303 300 298 296 295 294 294 294 294 294 293 293 293 292 292
318 317 318 314 311 312 310 312 317 316 313 312 311 313 314 316 318 319 318 317 318 316 316 316 316 315 315 315 315 316 315 314 314 314 315 315 314 312 313 314 314 313 313 313 312 312 312 312 313 313 313 312 312 312 312 312 312 312 311 311 310 310 309 308 308 308 307 307 307 306 304 303 301 299 297 295 294 294 294 293 293 293 292 292 292 292
317 317 316 314 310 312 313 313 315 317 316 313 312 314 313 313 315 317 317 317 317 316 315 316 315 315 315 316 318 318 315 314 314 315 316 315 312 312 314 314 313 314 314 313 313 312 312 312 312 312 312 312 311 311 311 311 311 311 311 311 311 310 308 308 307 307 307 307 306 305 304 303 301 299 297 295 294 294 293 293 293 293 292 292 292 292
318 317 316 316 313 313 315 315 313 314 315 314 313 313 313 314 315 315 316 316 316 316 315 316 316 315 314 316 318 316 315 315 315 316 317 314 311 312 314 313 313 314 313 313 313 312 312 312 312 312 312 312 311 311 310 310 310 310 310 310 311 310 309 309 308 308 307 306 305 305 304 302 300 299 297 296 294 294 293 293 293 292 292 291 291 291
318 318 315 316 316 314 317 317 314 314 315 315 314 314 314 313 314 315 315 315 316 315 315 316 316 315 315 318 317 314 314 314 313 315 318 315 312 313 313 313 313 313 312 313 312 312 312 312 311 311 311 311 311 310 310 310 310 310 309 309 309 310 310 309 308 307 306 305 305 304 302 300 299 299 297 296 295 294 293 293 292 292 291 291 291 291
315 317 315 315 315 315 317 317 313 311 311 313 314 315 314 313 313 314 314 314 315 315 315 316 315 315 315 319 318 315 315 315 312 313 315 313 312 314 313 313 313 312 312 312 312 312 312 311 311 311 311 311 310 310 310 310 310 310 309 309 309 309 309 308 307 305 305 304 304 303 301 299 299 298 297 296 295 294 293 293 292 292 291 291 291 290
314 316 316 315 315 315 316 316 313 312 311 312 313 314 314 315 314 315 315 314 314 315 315 315 315 314 314 317 319 317 316 315 313 312 312 311 311 312 313 312 312 312 312 312 311 311 311 311 311 311 311 311 310 311 311 310 310 309 310 309 309 309 309 308 306 304 303 303 302 301 300 299 299 298 298 297 295 294 293 292 292 291 291 291 290 290
314 314 314 314 315 315 315 315 315 315 313 311 312 313 313 314 315 315 315 315 314 315 314 314 314 314 313 314 315 315 314 314 313 312 311 311 311 312 312 312 312 312 312 311 311 311 310 311 311 310 310 310 311 311 310 310 310 310 309 309 309 308 308 307 306 304 303 302 301 300 300 299 299 299 298 297 295 294 293 292 291 291 290 290 290 290
314 312 312 313 313 314 314 314 314 315 313 312 312 313 312 313 314 314 314 314 314 314 314 314 314 314 313 313 313 313 312 313 312 312 312 311 311 311 311 312 312 312 312 311 311 311 311 310 310 310 310 310 310 310 310 310 310 309 309 309 308 307 307 306 306 304 303 301 300 300 299 299 299 299 297 296 294 293 292 291 291 290 290 290 290 290
313 311 312 313 312 313 313 312 313 313 313 312 312 313 312 312 313 314 314 313 314 314 314 314 314 315 314 312 312 312 312 312 312 312 312 311 312 312 311 311 311 311 311 311 311 311 310 310 310 310 310 310 310 309 309 309 309 309 309 309 308 307 306 305 305 304 303 301 300 299 299 298 298 297 296 295 293 292 291 291 291 290 290 290 289 289
313 311 312 312 311 312 312 311 312 313 312 312 312 312 312 312 313 313 313 312 313 314 313 313 314 314 313 312 312 312 312 312 312 312 312 312 312 312 311 311 311 311 311 311 311 311 310 310 310 310 310 310 309 309 309 309 309 309 309 308 308 307 305 305 304 303 302 301 300 299 298 297 296 295 294 293 292 291 291 291 290 290 290 289 289 289
312 311 311 312 311 312 312 311 312 312 312 312 312 312 312 312 312 312 312 312 312 312 312 312 313 313 312 312 312 311 312 312 311 311 311 311 311 311 310 310 310 310 310 310 310 311 310 310 310 309 309 309 309 309 309 309 308 308 308 308 308 307 305 304 303 303 302 301 300 299 297 295 294 294 293 292 292 291 291 291 290 290 289 289 289 289
310 312 312 312 312 311 312 311 311 311 312 312 312 311 311 311 311 312 311 311 312 312 312 312 312 312 311 311 311 311 311 311 311 311 311 311 311 311 310 310 310 310 310 310 310 310 310 309 309 309 309 309 309 309 309 309 308 308 308 308 307 306 306 304 303 303 302 301 300 298 296 295 294 294 293 292 291 291 290 290 290 289 289 289 289 289
309 311 312 313 313 312 312 312 311 311 311 311 311 311 311 311 311 311 312 312 312 312 312 312 312 312 311 311 311 311 310 311 311 311 311 311 311 311 310 310 310 310 310 310 310 310 309 309 309 310 310 310 309 309 309 309 308 308 308 307 307 306 305 303 303 302 301 300 298 297 296 295 294 293 292 291 290 290 290 290 289 289 289 289 288 288
309 310 311 312 313 313 313 312 312 311 312 312 312 311 311 311 311 311 312 311 311 312 312 312 312 312 311 311 311 311 311 311 311 311 311 311 311 310 310 310 310 310 310 311 310 310 310 310 310 310 310 310 310 309 309 309 308 308 308 307 307 306 304 303 302 301 300 298 297 296 295 294 293 292 291 290 290 289 289 289 289 289 288 288 288 288
308 310 310 312 313 313 313 313 312 312 313 314 314 312 311 311 311 311 311 311 311 311 311 311 311 311 312 312 311 311 311 311 311 311 311 311 311 310 310 310 310 310 310 311 310 310 310 310 310 310 310 310 310 309 309 309 309 308 308 307 306 305 304 303 301 300 299 297 296 295 294 293 292 291 290 289 289 289 289 289 289 288 288 288 288 288
309 309 309 311 312 312 313 313 313 314 314 314 314 313 311 310 311 311 311 311 310 311 311 311 311 311 311 311 311 311 311 311 311 311 311 311 311 310 310 310 310 310 310 310 310 310 311 310 310 310 310 310 309 309 309 309 308 308 307 307 306 304 304 302 301 299 298 297 296 295 293 293 292 291 290 289 288 288 289 289 288 288 288 287 287 287
310 310 310 310 311 311 312 313 314 315 313 312 313 312 311 311 311 311 311 311 310 311 311 311 311 311 311 311 311 311 311 311 311 311 311 311 311 311 310 310 311 311 311 311 311 311 311 311 310 310 310 310 309 309 309 309 308 308 307 307 306 305 304 302 300 299 298 297 296 295 294 293 292 291 290 289 288 288 288 289 288 287 287 287 287 287
310 311 311 311 311 312 313 312 313 314 313 312 314 313 311 311 311 311 312 312 311 310 310 311 311 311 311 311 311 311 311 311 310 310 311 311 311 311 311 311 311 311 311 311 311 311 311 311 311 310 310 310 309 309 309 309 308 308 307 307 306 305 304 302 301 300 299 297 296 295 294 293 292 291 290 289 288 288 289 288 288 287 287 287 287 287
310 310 312 313 313 313 314 313 313 314 313 314 315 314 311 311 311 312 312 312 312 312 311 311 311 310 311 311 311 310 310 311 311 310 310 311 311 311 311 311 311 311 311 311 311 311 311 311 311 310 310 310 309 310 310 309 309 308 307 307 306 305 304 303 303 302 300 298 297 296 294 293 292 291 290 289 289 288 288 288 287 287 287 287 287 287
310 310 311 312 313 313 314 314 315 315 314 314 314 313 312 311 311 312 313 312 314 314 312 311 311 311 311 311 310 310 311 311 311 311 310 311 311 311 311 311 311 311 311 311 311 311 311 311 310 310 310 310 310 310 310 310 309 309 308 308 307 306 305 305 305 304 302 299 297 296 294 293 292 291 290 289 289 288 288 288 287 287 287 287 287 287
311 310 311 312 313 313 314 314 314 314 314 315 314 313 311 311 310 313 314 314 314 313 312 311 312 312 311 311 310 311 312 311 311 311 311 311 311 311 311 311 311 311 311 311 310 310 310 310 310 310 310 310 310 310 309 309 309 309 309 308 307 307 307 307 306 303 301 299 297 295 294 293 292 291 290 289 288 288 288 287 287 287 287 286 287 287
310 310 311 312 313 313 314 314 314 313 313 314 314 313 310 310 312 313 314 313 312 311 310 310 310 310 310 309 309 309 309 309 309 309 310 310 310 310 310 310 310 310 310 310 310 310 310 309 309 309 309 309 309 309 308 308 308 309 309 308 307 308 309 307 305 302 300 298 297 295 294 292 291 290 289 288 288 288 287 286 286 286 286 287 287 288
309 310 310 312 312 312 312 312 312 313 311 309 310 311 311 312 312 311 309 308 307 307 307 307 307 306 306 306 306 306 306 306 307 307 308 308 308 308 309 309 308 308 308 308 309 309 308 309 309 309 308 308 308 308 308 308 307 308 308 308 308 309 308 306 303 302 300 299 297 295 294 292 290 289 288 288 287 287 286 286 286 286 286 287 288 289
305 307 308 310 311 311 311 312 312 312 308 304 305 309 310 309 308 306 305 305 306 305 304 304 304 304 303 303 304 305 305 306 306 306 306 307 307 307 307 308 308 308 308 308 308 307 307 308 308 308 308 308 308 308 308 307 307 307 307 308 308 307 305 304 303 301 300 298 297 295 293 291 290 288 288 287 287 286 286 286 286 286 287 288 289 289
302 303 304 306 306 306 308 310 310 308 305 301 301 302 302 302 302 303 304 305 305 303 302 302 302 301 301 302 302 303 304 304 305 305 305 305 305 305 305 306 307 307 308 308 308 307 307 307 307 307 307 307 307 307 307 307 307 307 307 307 307 305 304 303 302 300 299 298 296 294 292 290 289 288 287 287 286 286 285 286 286 287 288 288 289 288
301 302 301 301 302 302 303 305 305 303 301 299 298 298 298 299 301 303 303 302 302 301 300 300 299 299 299 299 300 301 301 302 302 302 302 302 302 303 303 303 304 305 305 306 307 307 307 306 306 306 306 306 306 306 306 305 306 306 306 306 305 304 303 302 301 300 298 297 295 293 291 289 287 287 287 286 285 285 285 286 287 287 288 289 288 287
298 298 298 300 301 300 299 301 301 300 298 297 296 296 296 297 300 302 301 300 299 298 298 297 297 297 296 296 297 298 298 298 298 298 298 299 299 299 299 300 301 301 302 303 305 305 306 306 305 305 306 306 305 305 305 304 304 304 304 304 303 303 302 301 300 298 296 295 294 292 290 289 287 286 286 285 285 285 286 286 287 288 289 288 287 286
296 297 297 297 296 295 295 297 298 296 295 295 294 294 295 297 300 301 299 298 297 296 295 294 294 294 294 295 295 296 296 296 296 296 296 297 297 298 298 299 299 300 301 302 303 304 305 305 305 305 305 305 305 305 304 304 303 303 303 302 302 301 301 299 298 297 295 294 293 291 289 288 287 286 285 284 284 285 286 287 287 288 288 288 286 285
294 295 294 293 293 293 293 294 294 294 294 294 295 295 296 297 297 297 296 295 294 293 293 293 293 294 294 294 294 295 295 295 295 296 296 297 297 298 298 299 299 300 301 302 302 303 304 304 304 304 304 304 304 304 304 304 303 303 302 302 301 301 300 298 297 296 295 294 292 291 289 288 287 286 285 284 285 285 286 287 287 287 287 287 286 285
292 292 292 293 293 293 293 294 294 294 294 295 295 294 294 294 294 293 293 293 293 293 294 294 294 294 295 295 295 295 295 296 296 297 297 298 299 300 300 301 301 301 301 301 301 302 303 303 303 303 303 303 303 303 303 303 303 302 301 301 301 300 299 297 295 294 293 292 291 289 288 287 286 286 285 284 285 286 286 287 287 287 286 285 284 282
292 292 292 293 293 293 293 294 293 292 292 292 292 292 292 292 292 292 293 293 293 293 293 293 293 293 293 294 294 295 295 296 296 297 297 298 299 299 300 300 300 300 300 300 300 301 301 302 302 302 302 303 303 303 302 302 302 302 301 300 300 299 298 296 294 293 291 290 289 288 287 286 285 284 284 285 285 286 286 286 285 285 284 283 281 280
291 291 291 291 291 291 291 291 291 290 291 291 291 292 292 292 292 292 292 292 292 292 292 291 291 291 291 291 292 292 293 293 294 294 295 295 296 296 297 297 298 298 299 299 300 300 300 300 301 301 302 302 302 303 302 302 302 302 301 300 299 299 298 296 294 293 291 290 289 288 287 285 284 283 284 285 286 286 286 285 282 281 280 280 280 279
Wind_Speed
12 6 4 8 11 12 10 12 14 14 13 12 11 9 9 8 9 13 10 4 9 6 8 13 13 13 16 13 12 21 25 21 21 21 23 28 30 35 36 34 33 35 37 35 33 32 30 30 33 35 36 37 37 38 39 39 40 40 39 39 39 39 39 39 40 41 41 40 39 38 37 36 35 33 32 31 30 29 28 26 24 23 22 20 18 17
8 6 9 15 17 12 9 11 12 12 13 12 9 8 8 7 10 13 9 4 8 5 7 10 11 13 15 14 13 18 18 16 20 19 22 29 31 36 36 33 35 34 32 30 30 29 25 27 31 34 36 37 38 39 39 39 39 39 39 39 39 39 40 41 41 41 42 41 40 37 36 36 35 34 34 32 31 30 29 27 25 24 23 21 19 17
5 9 13 17 14 10 11 11 9 10 10 9 6 5 7 8 10 11 6 3 4 3 5 8 9 11 13 14 14 16 15 19 27 26 29 34 32 35 35 33 32 27 25 28 28 28 24 26 30 32 35 37 38 38 38 38 37 38 39 39 39 39 40 41 41 42 42 41 39 37 35 35 35 35 34 33 32 31 30 28 26 25 24 22 20 18
7 9 14 18 15 12 14 11 7 8 8 7 6 5 8 10 8 7 4 3 4 4 6 7 8 8 11 15 15 20 25 27 32 33 36 40 36 38 39 34 28 22 23 28 28 27 25 26 30 32 35 36 37 38 38 38 38 38 39 39 39 39 40 41 42 42 42 40 38 36 35 35 35 35 35 35 34 33 31 28 27 26 25 23 21 19
12 8 9 11 12 12 13 10 7 6 8 7 7 7 11 12 11 10 6 3 4 6 4 4 9 8 10 15 14 16 22 23 27 28 30 38 40 40 40 34 28 24 25 28 28 27 26 27 29 31 33 35 36 37 38 38 38 38 38 38 39 39 40 41 42 42 42 40 39 38 38 38 38 37 37 37 36 34 32 29 28 27 26 24 22 20
13 11 11 9 6 8 8 8 7 6 8 8 7 12 16 15 13 12 10 5 3 5 2 0 7 7 8 13 13 9 9 12 16 17 20 31 36 36 38 35 29 25 25 27 28 27 26 26 28 30 32 33 34 35 35 36 36 37 37 38 38 39 40 41 42 42 42 42 43 42 42 43 42 41 41 39 37 35 33 31 29 28 27 25 23 21
6 8 9 9 8 8 6 6 7 7 8 8 4 8 12 12 11 11 9 5 3 4 2 3 2 8 7 8 9 6 7 9 10 10 15 25 29 31 34 36 30 23 24 27 27 27 27 26 27 29 30 31 31 31 33 34 35 36 36 37 37 38 39 40 41 43 43 44 44 44 45 45 44 43 42 39 37 35 32 31 30 29 28 26 24 22
4 5 4 5 7 6 6 8 8 9 7 7 1 1 3 4 6 6 5 5 4 3 3 4 4 9 13 7 9 9 8 9 9 9 12 19 26 29 31 35 31 24 24 27 28 28 28 26 26 27 26 26 27 28 31 32 33 33 34 35 36 37 38 39 41 42 44 45 45 45 45 45 44 43 41 38 37 36 34 32 31 30 29 27 25 24
2 7 7 8 7 5 8 7 6 9 7 4 0 2 2 2 2 1 2 5 3 4 4 5 7 6 14 5 9 11 10 10 11 11 12 16 24 27 28 32 31 27 27 28 29 28 27 26 26 24 23 23 26 27 29 29 29 30 31 33 34 35 37 39 40 42 44 45 45 45 45 45 44 43 41 39 38 38 36 34 33 31 30 28 27 25
0 4 4 6 7 7 7 2 1 5 6 4 2 3 5 2 1 2 2 2 3 5 7 7 8 6 14 6 8 8 10 11 11 11 12 16 23 26 25 27 26 27 28 28 28 27 25 25 23 22 23 24 25 26 26 27 28 29 31 32 32 34 36 38 39 41 43 44 45 45 46 46 45 44 42 41 40 40 37 35 34 32 31 30 29 27
2 4 3 2 5 4 4 4 3 1 2 3 3 2 3 1 1 1 3 2 1 10 8 10 14 9 10 5 8 8 10 12 10 9 12 14 19 24 22 21 23 26 28 27 27 25 24 23 22 23 25 25 25 25 26 27 28 29 30 31 31 33 35 37 39 41 42 43 45 46 46 46 46 45 45 44 43 42 39 37 35 34 33 32 30 28
4 2 1 2 3 5 6 3 2 3 1 2 3 2 1 3 2 3 2 4 2 11 4 12 17 14 11 5 5 7 10 13 11 10 13 11 14 22 24 22 24 26 27 26 25 24 25 25 24 26 27 26 26 27 27 27 28 29 30 30 31 33 35 36 38 40 41 43 44 45 46 46 46 46 47 47 45 43 41 38 36 35 34 33 32 30
6 8 6 1 2 8 6 1 2 4 2 2 4 4 1 3 2 1 2 3 5 11 4 11 14 12 15 10 3 5 7 11 11 10 14 13 14 22 24 24 25 26 26 26 25 25 26 28 29 30 30 29 29 29 28 28 29 29 30 30 30 31 33 34 36 38 39 41 43 44 46 46 47 47 48 47 46 44 41 38 37 37 36 35 33 31
3 6 7 4 2 10 10 5 4 2 4 8 6 6 5 3 3 4 4 3 7 9 5 7 11 7 10 8 10 13 11 11 14 17 18 15 16 21 23 26 27 27 27 26 26 26 27 29 30 31 31 31 31 30 29 29 30 30 30 30 30 30 32 33 34 36 37 39 41 43 45 46 48 48 48 48 47 45 42 40 39 38 37 36 34 32
4 8 7 8 3 11 15 13 12 4 4 9 6 5 6 5 3 4 5 7 7 6 5 3 6 5 4 3 12 17 15 15 19 26 25 19 19 19 19 24 27 27 26 25 26 27 28 30 30 31 31 32 32 31 31 31 30 30 30 30 29 29 31 33 33 34 35 37 39 42 44 46 48 49 49 49 47 45 43 41 40 38 38 36 34 32
5 10 7 9 3 11 13 12 11 5 1 6 5 4 6 5 4 5 8 9 5 4 6 4 4 6 4 5 10 12 13 14 17 23 21 19 21 19 18 23 26 26 25 24 26 28 30 31 31 31 31 32 33 33 32 32 31 30 30 30 29 29 31 32 33 33 33 35 37 40 44 46 48 49 49 49 48 47 45 42 40 39 38 36 34 32
5 7 3 5 2 4 4 4 5 4 1 2 4 5 5 3 5 6 8 7 3 5 9 6 7 7 6 10 13 12 12 12 12 14 14 17 22 20 19 23 24 25 25 25 26 28 30 32 32 32 32 34 35 34 34 33 32 31 30 30 30 31 33 34 34 34 33 34 36 39 43 45 48 49 50 50 49 48 46 43 41 39 38 36 35 33
7 7 2 4 1 1 2 5 4 3 1 4 3 4 1 3 1 2 2 3 3 8 9 9 12 10 8 9 5 8 13 13 12 13 14 17 19 17 19 24 25 26 26 26 25 27 30 32 33 33 33 35 36 35 35 33 33 32 31 32 32 33 34 34 34 36 36 36 36 37 41 44 46 48 50 50 50 49 47 45 43 41 39 37 35 33
5 6 4 2 1 2 3 3 3 3 2 5 2 3 2 0 2 2 3 2 5 8 7 10 15 12 11 11 6 3 12 14 14 16 17 16 13 13 19 25 26 26 26 26 26 27 30 32 33 34 34 36 37 37 35 34 34 34 33 34 35 35 35 34 35 38 38 38 37 38 40 42 44 47 49 50 50 50 48 46 44 42 40 38 36 34
3 5 5 1 1 2 2 1 4 1 1 1 3 4 1 2 3 3 3 3 6 8 8 10 12 13 12 9 7 8 12 14 14 15 14 12 12 17 23 27 28 27 27 29 29 29 31 32 33 35 36 37 39 38 36 36 37 36 36 36 38 38 38 38 38 39 41 40 40 40 41 42 44 46 48 50 50 51 49 47 45 42 40 39 37 35
2 4 6 1 2 2 2 4 7 7 5 3 2 3 3 2 1 1 3 3 5 7 7 7 10 15 10 1 4 8 11 12 12 11 10 9 14 22 27 29 29 28 30 31 30 30 30 31 33 35 37 39 40 38 37 38 39 38 38 39 40 41 41 41 40 40 41 42 43 43 43 44 45 46 48 49 50 51 49 47 45 43 41 39 38 36
3 5 7 3 2 6 8 6 10 13 11 8 7 8 8 7 4 4 7 7 6 5 6 7 9 15 8 4 2 4 9 11 10 11 10 10 16 23 25 27 27 27 29 29 29 30 29 29 32 34 36 38 41 41 39 39 39 39 40 40 41 43 43 43 42 41 42 43 45 45 46 46 46 47 48 49 50 50 49 48 45 43 42 40 39 36
2 2 5 6 6 8 9 5 6 10 8 5 5 7 9 8 8 9 10 8 5 4 6 7 10 16 8 5 5 1 5 8 10 11 9 10 19 23 23 25 25 26 27 27 29 30 28 28 30 31 33 36 40 42 43 42 42 41 41 41 43 44 45 45 45 44 43 44 45 46 48 49 48 48 48 49 49 50 49 48 46 44 43 41 39 36
3 2 4 7 5 5 6 4 1 1 1 2 5 5 6 7 8 10 9 7 7 6 6 8 11 15 9 2 3 3 5 6 9 11 9 10 18 22 23 25 25 25 28 29 29 29 28 29 30 32 34 34 36 40 44 46 45 42 41 43 44 44 45 47 47 46 46 46 46 48 50 50 50 49 49 49 50 49 49 48 46 45 43 41 39 36
1 1 2 4 5 4 5 6 4 2 3 1 5 6 8 9 10 10 7 7 10 10 11 13 11 11 10 3 4 5 6 6 8 12 14 14 17 20 23 25 27 28 30 30 30 30 31 32 33 35 35 32 32 36 41 45 44 41 41 44 46 44 44 46 48 48 48 48 48 49 51 51 51 51 50 50 50 49 49 48 47 45 43 41 39 36
0 1 2 3 6 7 7 8 7 3 0 1 4 7 10 11 12 11 8 8 10 11 14 15 12 11 14 13 12 13 13 12 12 15 16 17 20 23 24 26 28 30 31 32 33 33 34 36 36 36 35 32 33 35 39 42 43 42 42 45 47 46 44 44 46 48 48 49 50 50 51 52 52 52 51 51 51 50 49 48 47 45 43 41 39 36
2 3 6 9 11 11 11 12 11 8 6 6 8 10 11 11 12 11 8 10 11 11 13 15 15 17 17 18 22 22 20 19 18 18 17 18 21 23 24 26 29 32 34 34 35 36 37 38 39 37 34 34 35 36 38 41 43 44 43 44 46 47 45 44 45 47 48 49 50 51 52 52 52 52 52 52 52 50 50 48 47 45 43 41 39 36
3 5 11 16 18 17 16 19 18 16 16 16 16 17 15 13 12 12 12 12 11 12 15 14 16 20 17 17 24 26 25 23 19 17 18 21 25 25 24 26 30 33 34 35 35 37 39 39 39 37 36 36 37 38 39 41 44 45 45 44 44 46 46 45 45 46 47 49 51 52 52 52 52 52 52 52 52 51 50 49 47 45 43 41 39 36
3 7 13 15 19 20 20 21 22 20 20 20 19 20 20 18 15 15 16 16 15 16 17 16 19 23 20 19 23 25 24 22 20 24 28 30 31 29 23 22 27 31 31 33 34 35 37 39 38 37 38 38 39 40 41 42 44 45 45 44 44 45 46 45 44 45 46 48 50 51 52 52 52 52 52 52 52 51 50 49 47 45 43 41 39 36
4 6 11 15 17 18 19 21 22 21 21 20 20 21 21 22 22 22 22 23 24 23 22 22 25 26 23 21 24 26 27 25 27 34 38 36 36 36 28 22 25 28 27 28 31 33 36 38 38 38 40 41 42 43 43 44 45 45 46 45 44 45 45 44 45 45 46 48 50 50 51 52 52 52 53 53 53 52 51 50 48 46 43 41 39 36
7 8 10 12 12 13 18 21 21 21 21 22 24 22 21 23 25 26 25 23 23 24 25 25 23 21 21 23 25 27 28 28 28 32 36 38 40 41 34 25 25 28 27 27 30 33 35 37 37 39 41 42 43 43 44 45 45 45 46 45 45 45 44 44 45 45 46 48 48 50 51 52 53 53 53 54 53 52 51 50 48 46 43 41 38 36
7 6 6 7 8 9 15 20 22 23 23 23 23 22 23 26 25 24 23 22 22 23 24 23 18 17 20 21 20 20 23 24 25 27 32 37 41 40 34 27 26 29 32 35 37 36 36 37 37 37 39 40 40 40 40 41 42 44 45 45 44 44 43 44 45 45 46 47 47 49 51 52 53 53 54 54 53 52 51 49 47 45 42 40 39 36
6 6 5 7 8 8 12 19 21 18 16 14 16 23 30 31 27 23 21 23 24 21 18 16 16 18 19 17 16 19 22 23 25 27 29 32 37 39 36 33 31 30 35 42 42 37 34 34 34 34 35 35 35 35 36 36 38 40 40 41 42 42 43 44 44 44 45 45 47 48 49 51 52 53 53 53 52 51 50 48 47 44 42 41 39 36
8 9 7 7 6 7 12 15 13 11 10 9 13 23 31 30 27 25 24 26 27 23 18 17 19 20 18 15 17 21 24 27 33 38 35 31 32 35 37 38 36 32 34 40 40 37 35 34 32 33 33 33 32 31 31 32 34 35 35 37 39 40 41 42 42 42 43 44 45 47 48 50 51 52 52 52 51 50 49 47 46 44 42 40 38 36
9 9 8 6 5 6 8 9 10 10 9 8 11 17 22 24 27 27 26 28 29 26 24 24 23 22 20 20 22 24 30 39 46 45 38 34 35 35 37 42 43 39 38 41 41 41 40 38 35 34 34 33 31 28 28 28 30 32 33 35 37 38 39 39 40 40 41 43 44 46 48 49 50 51 52 52 51 49 48 47 45 44 42 40 37 35
12 10 7 5 6 6 5 8 11 8 2 2 7 10 12 15 18 21 22 25 27 27 27 25 24 23 23 23 27 35 41 44 41 37 38 42 43 40 39 43 45 44 44 44 44 44 44 43 41 38 35 32 28 26 25 26 27 29 31 32 34 36 37 37 38 39 41 42 45 46 48 49 50 52 52 51 50 49 48 47 46 45 42 40 37 34
16 13 8 6 7 7 7 9 12 12 6 4 6 9 13 15 15 16 18 21 24 24 24 22 22 23 24 23 28 38 41 31 21 23 37 48 49 48 48 46 43 44 47 48 48 45 42 41 41 39 35 31 26 24 23 24 25 26 28 30 32 34 35 37 38 39 41 43 45 46 48 49 50 51 51 51 50 49 49 48 47 45 43 40 37 33
18 16 13 10 8 9 10 9 8 10 10 10 10 13 17 20 20 19 18 16 13 14 17 20 23 25 26 24 25 27 25 18 11 15 33 49 51 51 50 45 40 42 45 46 43 38 35 34 34 35 32 27 24 23 22 23 24 25 26 28 30 32 34 36 37 38 41 43 45 46 48 49 50 50 50 50 50 49 49 49 47 45 42 39 35 31
21 17 14 11 7 8 9 7 8 11 9 10 14 16 18 22 19 14 15 12 7 9 14 19 22 23 21 20 20 17 13 12 9 13 30 45 47 45 42 38 37 40 40 37 33 31 32 31 30 30 28 25 24 25 25 25 25 25 26 27 28 31 33 33 34 36 39 42 43 45 47 48 49 49 49 48 48 48 49 49 47 44 41 37 33 29
17 13 12 12 9 9 10 7 8 9 6 7 11 13 19 23 15 9 12 8 7 14 20 22 22 21 19 18 17 12 10 11 12 18 33 41 39 38 37 35 35 36 34 32 30 30 30 29 28 29 28 27 27 26 27 27 26 26 27 28 29 31 31 30 32 35 38 40 42 44 45 47 48 47 47 46 46 47 48 48 46 44 40 35 32 29
9 7 9 10 9 10 13 10 7 8 6 6 9 11 14 14 8 8 11 7 2 6 13 12 13 14 14 12 11 7 9 15 19 22 29 32 32 35 35 33 32 30 28 29 31 30 29 28 28 29 30 29 27 27 28 28 28 28 29 30 32 32 30 30 32 35 37 39 41 43 45 46 46 45 45 44 45 47 48 48 45 42 38 35 31 29
4 3 4 8 8 9 10 8 8 8 3 7 10 11 8 4 3 6 9 17 16 14 21 22 16 19 23 21 18 17 22 29 30 28 29 29 28 28 28 27 26 24 24 26 28 28 27 27 28 30 31 30 27 27 28 28 29 30 30 32 34 33 32 32 34 35 37 39 41 43 44 45 45 44 44 44 46 49 49 48 44 40 36 33 30 28
4 4 4 5 6 7 8 6 6 6 6 17 14 8 1 1 7 10 12 17 19 21 25 26 24 26 28 27 28 30 31 32 31 31 34 35 32 31 31 31 29 27 26 26 25 24 24 25 27 29 30 29 29 31 30 28 28 30 32 34 36 35 35 35 35 36 38 40 41 43 44 44 44 45 45 46 48 50 50 48 43 39 35 32 30 28
5 3 3 3 4 3 4 4 2 1 4 11 9 4 5 12 18 18 13 11 16 22 23 23 26 30 30 29 31 34 33 33 34 35 36 35 35 35 35 35 34 31 30 30 29 28 27 25 25 26 27 28 31 35 35 32 31 32 34 35 37 37 37 37 37 38 40 41 42 43 44 44 45 46 47 48 50 51 50 47 43 38 35 33 31 30
6 6 6 5 5 4 4 8 9 7 9 13 9 7 14 22 22 18 14 14 18 22 22 22 26 32 34 33 33 35 34 36 39 40 39 38 38 37 36 36 36 34 34 35 34 32 30 28 25 24 26 29 31 35 38 37 35 35 35 36 37 38 39 39 39 40 42 43 43 43 44 45 47 47 48 50 52 52 50 47 43 39 36 34 33 32
9 12 10 5 5 7 7 10 13 12 17 27 30 28 27 25 21 17 16 18 22 26 27 28 29 33 37 36 33 33 36 40 43 45 45 44 42 42 40 39 38 37 36 37 36 34 32 30 27 27 29 31 30 31 34 37 37 37 37 37 37 37 38 40 41 42 43 44 44 44 46 47 48 49 50 52 52 50 49 46 43 40 38 36 35 33
6 9 9 6 8 10 8 8 12 16 23 35 42 41 33 23 19 20 22 24 27 32 34 35 35 37 38 37 33 33 37 40 43 45 47 46 44 43 43 41 40 38 36 35 35 36 34 31 31 31 32 31 30 29 31 36 38 39 39 39 38 38 38 40 42 43 45 45 46 47 48 49 50 52 53 54 52 49 46 44 42 41 39 37 35 32
9 12 12 10 10 12 12 13 18 25 30 33 32 29 27 26 26 28 28 30 33 35 36 37 37 37 37 36 35 34 35 37 38 41 43 44 43 42 42 41 40 39 38 36 35 36 35 35 35 35 35 34 33 32 33 35 37 38 40 40 40 39 40 41 42 44 46 47 48 49 50 50 52 54 56 56 54 50 47 43 41 39 37 34 32 31
13 14 13 12 12 13 14 13 14 17 21 24 24 25 28 33 35 36 35 34 34 33 33 33 32 31 31 33 34 34 34 35 36 37 38 39 40 40 39 39 39 39 39 39 37 36 37 38 38 38 38 37 36 34 35 36 37 38 40 41 41 41 41 42 44 45 47 48 49 50 51 52 54 56 58 58 54 49 45 42 39 37 34 32 30 27
11 11 10 10 11 11 9 10 14 13 13 19 29 34 34 35 36 35 34 32 30 28 29 29 29 30 30 30 31 32 33 34 35 35 36 37 38 38 38 39 40 40 40 40 38 37 38 39 39 38 39 39 37 37 38 39 40 40 40 41 43 42 43 44 45 47 49 50 51 52 53 54 56 58 58 57 54 49 44 40 37 35 33 31 28 26
10 10 9 9 11 13 16 20 23 21 15 20 32 38 37 34 30 26 27 30 30 30 29 29 31 35 35 34 33 33 35 37 38 38 39 39 40 39 39 39 39 39 40 40 39 38 39 39 39 39 39 39 39 40 40 41 42 42 42 43 44 44 45 46 48 50 52 53 54 55 55 57 59 60 58 55 52 49 46 42 37 33 29 27 27 25
Wind_Direction
184 187 206 221 238 230 217 217 224 236 244 254 264 267 267 272 269 267 276 210 182 199 218 224 234 245 254 253 242 250 255 256 252 244 240 243 246 251 256 257 255 254 255 257 254 247 240 242 243 240 239 236 232 229 229 229 229 232 235 236 236 235 235 234 232 231 231 232 232 232 232 232 232 233 235 236 237 239 241 243 243 241 241 242 245 248
187 207 219 226 240 243 238 237 237 241 245 250 254 264 271 265 266 271 277 205 181 203 233 236 246 250 254 258 254 250 251 251 251 251 250 250 251 255 258 258 258 257 253 250 247 240 234 237 237 234 235 233 230 227 226 229 230 233 236 238 238 236 235 236 236 235 234 235 236 236 236 235 234 235 236 237 238 239 241 242 242 239 240 242 244 248
211 229 232 237 249 256 257 256 255 259 257 259 263 276 274 267 274 278 267 189 169 194 242 249 254 257 261 262 258 251 246 245 246 248 253 255 255 258 260 258 257 255 243 238 235 230 228 235 234 230 231 232 230 228 228 231 232 234 236 237 238 237 237 238 238 237 236 236 238 238 238 236 235 235 236 236 237 238 240 241 240 238 239 242 243 247
227 226 232 243 252 253 256 251 243 266 265 250 251 264 265 260 268 275 254 187 180 208 242 268 266 259 266 266 260 252 248 250 250 247 251 255 256 258 259 259 255 248 235 228 223 222 225 231 231 228 229 229 228 227 227 230 232 233 236 237 238 238 238 238 238 237 236 236 237 236 235 234 234 234 234 234 235 237 239 240 239 237 239 240 242 245
239 231 224 236 241 239 247 244 228 250 259 239 220 231 253 255 251 257 257 216 210 233 239 295 288 261 242 251 257 252 245 246 247 244 246 251 254 257 260 259 253 244 235 225 218 220 225 230 231 228 227 227 226 227 228 230 232 234 236 238 238 239 239 238 238 237 235 234 233 231 229 228 229 229 231 233 234 236 238 238 236 236 238 240 241 244
245 240 231 229 230 225 232 242 219 216 258 259 212 217 242 254 256 261 276 300 302 269 222 147 289 267 208 226 249 252 229 231 237 232 235 243 248 252 256 257 252 242 236 231 227 227 230 233 231 226 225 225 226 228 229 230 232 234 236 237 238 238 238 238 238 237 235 234 233 231 229 229 229 229 231 235 237 238 239 238 236 236 238 239 241 243
240 223 220 220 224 224 228 251 225 206 258 272 225 224 244 255 260 261 272 280 256 263 243 121 303 286 247 217 239 233 196 218 228 223 232 240 242 241 246 253 254 243 233 231 230 230 231 232 230 226 224 224 225 225 226 228 230 232 235 237 238 238 238 238 238 237 236 235 234 235 235 235 236 236 236 238 239 239 238 237 236 237 238 238 240 242
189 175 162 202 217 220 226 247 229 198 236 265 260 287 263 262 266 262 264 245 235 286 276 154 135 279 276 235 210 202 188 219 229 226 238 241 240 238 239 248 252 244 236 230 226 226 229 233 233 230 225 222 221 221 222 224 227 230 232 235 238 239 239 239 239 238 237 237 237 236 237 237 238 239 239 239 238 236 235 235 236 237 238 237 238 242
145 182 194 201 197 218 223 235 217 183 213 250 65 43 78 70 310 331 274 253 285 321 264 188 149 254 281 246 183 193 190 213 225 225 238 242 243 240 238 244 247 242 239 234 229 229 232 237 237 231 223 220 218 217 219 221 224 227 230 233 236 237 239 239 239 238 238 239 239 238 238 236 236 237 237 236 235 235 234 235 237 238 237 236 238 241
212 178 210 189 182 225 218 184 72 178 209 216 135 72 78 77 7 60 251 259 345 287 240 190 157 223 277 257 167 193 200 209 221 222 233 242 245 245 240 240 241 237 235 232 231 233 237 240 236 226 219 217 216 215 218 220 222 225 227 230 233 235 237 238 239 238 238 239 238 239 238 237 235 234 232 232 232 234 235 235 236 237 236 236 237 239
225 88 33 209 195 208 135 87 26 72 174 160 135 75 63 290 5 63 247 107 10 270 235 185 180 197 268 260 154 188 198 198 209 213 227 239 243 246 243 235 231 229 228 226 225 227 232 233 229 221 217 214 215 215 216 218 220 223 225 227 231 234 236 238 239 239 239 240 239 240 239 238 236 234 232 232 232 233 234 234 236 236 236 236 237 238
241 134 52 243 186 123 99 90 15 27 35 116 118 109 23 301 12 34 284 110 225 266 217 176 186 191 236 253 143 190 195 191 201 205 218 227 234 239 237 229 225 224 223 221 220 220 220 218 215 215 214 213 213 213 213 215 217 221 223 225 228 231 234 237 239 240 240 240 241 241 240 238 237 236 235 235 235 236 236 236 236 235 235 235 236 238
245 230 208 195 187 169 152 108 25 358 308 150 131 132 117 284 310 325 245 148 225 256 225 178 181 197 236 245 198 221 207 194 206 212 212 208 217 228 226 220 221 220 219 219 219 219 215 210 207 207 208 210 211 211 211 213 216 219 221 223 226 231 234 236 238 240 241 241 242 241 240 239 238 237 237 238 238 238 237 237 236 235 235 235 236 239
260 259 192 161 257 189 171 174 214 264 196 182 161 149 168 213 250 251 240 242 243 257 269 190 177 212 262 247 203 217 221 201 203 217 217 208 212 222 218 213 214 215 217 220 220 219 216 211 207 206 207 210 212 212 211 214 216 217 220 221 225 230 233 234 237 240 241 242 243 242 241 240 238 237 237 238 238 238 238 238 237 237 237 237 238 240
248 287 186 163 210 180 180 206 212 175 165 199 175 159 197 198 220 247 234 248 261 278 289 197 173 215 272 214 193 205 218 208 200 212 220 220 224 228 219 210 208 209 214 220 220 219 219 216 212 210 212 215 216 215 214 215 216 218 220 221 224 229 231 233 235 238 242 244 244 243 241 240 239 238 238 238 239 238 238 238 237 237 237 237 238 239
234 277 197 162 149 162 182 222 208 137 105 218 152 164 231 205 197 248 253 253 285 322 273 227 214 237 257 260 226 211 218 212 204 211 215 220 225 224 214 204 203 207 213 218 219 219 219 218 216 215 218 221 220 218 217 217 218 219 222 223 225 229 232 233 234 236 241 244 245 244 242 240 239 238 238 238 238 238 238 238 238 238 237 237 237 238
230 283 180 144 37 138 174 264 206 172 243 196 142 195 229 164 169 226 266 276 301 286 272 260 255 270 304 281 244 216 214 212 208 211 210 218 221 217 209 203 203 210 217 221 222 222 221 219 218 219 222 224 223 221 221 222 223 224 225 226 226 228 230 231 233 235 237 240 243 244 243 241 239 239 238 238 237 237 238 238 237 237 237 236 237 238
233 266 226 158 296 289 355 335 288 270 89 124 175 230 263 31 81 181 257 305 268 258 271 274 270 280 291 280 253 190 204 209 206 208 212 217 216 214 212 211 214 220 223 225 226 225 224 223 221 222 225 228 228 227 228 228 229 228 228 230 229 228 230 233 234 234 235 237 241 243 243 242 241 240 239 239 238 237 237 237 237 236 236 235 236 237
229 254 270 144 246 305 18 345 285 317 70 138 229 296 74 208 248 175 183 223 244 251 267 277 281 279 255 261 294 212 200 205 206 207 212 214 210 211 216 220 224 226 227 227 227 227 227 226 226 228 231 233 232 231 232 233 232 230 231 232 232 232 234 236 236 234 234 235 238 242 243 243 242 240 239 238 237 237 236 237 237 236 236 235 235 236
206 231 258 1 328 317 8 242 188 215 267 121 344 341 63 180 190 185 198 204 224 240 262 277 283 277 254 248 265 227 195 200 206 206 212 213 208 208 213 223 227 226 229 231 231 231 232 233 233 233 237 240 238 234 233 234 233 232 233 233 234 234 233 233 235 236 235 235 236 239 240 241 241 240 238 237 237 236 236 236 236 236 236 235 235 235
182 220 235 290 359 283 251 204 177 189 208 190 235 258 235 226 207 258 253 224 220 230 246 256 265 271 270 216 227 211 184 197 202 198 212 217 213 214 216 223 225 225 231 235 235 235 236 239 240 237 240 244 240 235 235 236 236 235 235 237 238 237 234 233 235 236 237 236 236 237 239 239 239 239 238 236 236 236 236 236 236 235 235 234 234 235
179 208 222 208 202 232 243 218 192 202 206 193 203 213 218 218 214 257 250 227 224 230 235 239 253 264 270 74 63 195 179 200 199 193 213 217 217 221 222 225 227 229 233 238 240 240 239 242 243 241 243 245 240 237 237 238 239 239 239 241 241 239 238 237 237 238 238 237 236 237 238 238 237 237 237 236 235 235 234 234 234 234 234 233 233 234
131 156 226 235 225 239 255 238 196 215 224 221 223 216 218 211 200 226 240 240 247 236 234 247 252 258 266 66 49 75 167 205 209 194 202 213 218 224 226 228 232 235 239 245 248 245 242 245 246 244 247 251 247 242 242 243 243 245 246 245 243 243 243 241 239 239 238 237 237 237 236 235 235 236 237 236 235 234 233 233 233 233 232 233 233 233
66 119 227 251 264 287 287 290 11 18 353 284 265 238 223 221 220 233 245 256 258 236 232 250 249 257 272 93 130 184 157 187 212 200 196 215 222 224 226 229 234 239 245 250 249 245 245 248 248 245 248 253 253 249 248 247 247 248 250 249 246 247 248 244 239 237 236 236 236 235 234 234 235 236 236 236 236 234 232 231 230 231 231 232 233 233
5 211 236 261 274 292 301 295 294 347 42 249 252 247 241 245 250 258 263 260 256 243 240 251 252 259 274 248 190 215 203 204 227 224 220 229 234 234 234 237 241 245 247 247 245 244 246 245 245 246 248 254 260 260 256 251 248 250 256 256 251 249 250 246 241 238 236 235 234 233 233 233 234 235 236 236 235 233 231 230 229 229 230 230 232 232
76 251 271 255 248 249 253 258 260 262 78 232 248 243 244 245 246 253 260 251 250 244 239 249 259 264 273 277 271 263 254 251 255 252 244 244 248 246 244 246 247 246 243 241 243 246 246 244 246 248 249 254 263 266 262 257 253 253 259 260 254 249 248 247 244 240 237 235 234 233 233 233 234 236 236 236 234 232 230 228 228 228 228 229 231 232
113 198 222 228 234 240 242 250 263 270 261 262 260 249 248 248 246 251 254 249 256 260 249 250 259 264 269 277 278 274 271 269 270 272 271 266 263 256 250 249 248 246 244 243 246 248 245 243 246 249 251 256 263 266 265 262 259 257 259 262 258 250 245 245 244 241 238 236 235 234 233 234 236 236 235 234 233 230 228 227 226 226 227 228 230 231
128 206 216 223 230 233 239 248 256 261 258 256 258 257 257 252 243 245 248 248 258 264 258 255 263 267 266 266 271 274 276 276 275 277 279 277 274 268 259 253 248 247 248 248 247 246 244 243 246 249 253 258 263 265 266 264 261 259 259 261 260 252 245 244 243 241 240 238 236 235 235 235 235 234 233 232 231 229 226 225 225 225 226 227 229 231
172 228 218 222 231 230 234 242 245 249 251 249 249 251 254 252 245 246 249 249 247 249 257 264 266 268 268 265 268 271 274 278 283 284 283 281 279 276 270 258 251 249 248 247 246 244 244 246 248 251 255 259 263 264 264 264 261 258 257 258 258 253 247 245 244 243 241 239 238 237 236 233 231 231 231 230 229 227 225 224 224 224 224 225 227 229
178 228 219 227 238 235 234 238 239 243 249 251 249 246 247 251 251 249 250 250 249 250 256 261 260 262 266 266 265 267 272 280 287 285 283 282 280 279 274 262 258 258 252 247 247 246 246 248 250 254 258 259 261 261 261 261 260 258 258 258 257 253 249 246 246 244 243 241 240 237 233 231 230 230 230 229 228 226 225 223 223 222 223 224 225 228
203 216 209 223 245 239 235 239 237 237 242 246 249 249 249 251 251 249 248 248 250 252 251 250 255 260 261 259 261 267 275 281 282 280 278 277 278 279 276 267 264 266 262 255 253 252 253 253 254 257 260 260 260 260 259 259 259 258 258 257 256 254 251 249 247 246 244 243 239 235 232 231 230 229 229 228 227 226 224 222 221 221 222 222 224 226
207 221 209 224 249 234 228 236 237 235 237 239 244 250 250 247 244 242 241 239 240 244 246 247 249 251 251 253 259 267 270 270 269 270 272 274 274 275 276 272 266 266 268 268 264 261 259 260 261 262 263 263 262 262 260 260 259 258 257 257 257 255 252 250 248 246 244 241 237 234 232 231 229 228 228 227 226 225 223 221 220 220 221 221 223 225
192 213 210 218 245 242 227 234 238 237 238 233 228 234 240 242 242 242 244 245 243 241 242 243 243 245 249 253 259 262 262 260 259 259 262 268 273 275 277 277 271 266 269 271 271 267 265 265 266 266 265 265 265 264 265 263 260 260 261 260 258 255 252 251 248 246 243 239 236 234 232 230 228 227 227 226 225 224 221 220 219 219 220 220 222 225
195 214 221 215 239 246 230 236 245 238 235 228 209 219 231 239 242 244 244 245 245 243 241 243 247 253 255 252 249 252 254 255 257 258 260 265 271 274 277 278 275 270 269 272 273 274 274 273 271 270 270 270 269 269 268 265 262 263 263 260 257 254 252 251 248 244 241 238 236 234 231 229 228 227 226 225 224 222 220 219 219 218 218 219 221 224
206 216 226 223 238 249 238 240 247 237 230 230 217 217 227 236 240 244 246 245 247 249 248 247 249 251 253 252 251 251 253 256 259 265 270 272 269 268 271 274 275 274 272 273 277 280 281 280 276 274 275 275 274 271 266 263 261 260 258 256 255 254 252 250 247 243 241 238 236 233 230 229 227 227 226 225 223 221 219 218 218 218 217 218 221 224
218 218 220 221 227 240 234 222 237 256 278 191 210 213 224 235 239 245 250 247 243 245 247 246 246 246 247 249 250 251 255 259 264 269 273 273 269 266 265 265 269 272 273 276 279 282 285 286 283 280 280 279 275 269 264 261 258 255 254 254 253 253 251 248 245 243 241 239 236 233 231 230 228 227 226 225 222 219 217 217 216 216 217 218 220 224
222 224 225 223 214 219 232 229 239 263 270 203 191 198 211 224 224 229 245 244 234 235 242 246 249 249 247 246 248 252 257 263 270 270 267 267 268 266 265 264 266 270 273 276 278 281 286 290 288 284 284 281 275 267 262 259 254 250 248 248 248 248 247 245 244 244 242 239 237 234 233 231 229 228 226 224 221 218 217 216 215 215 215 217 220 223
219 222 222 225 215 211 232 241 238 249 246 223 213 208 212 224 227 228 245 247 226 222 233 237 241 244 245 247 249 252 258 262 262 263 262 264 265 266 267 269 270 270 272 274 276 281 289 293 292 288 285 281 275 266 260 257 253 248 244 243 243 244 243 243 244 244 242 240 238 235 233 232 230 229 227 224 221 218 216 214 214 214 215 216 219 222
222 224 224 232 230 212 228 240 230 241 245 220 217 217 218 227 232 239 258 257 208 196 219 227 235 239 239 247 250 247 252 257 250 256 261 263 266 269 271 275 275 272 273 273 274 283 292 294 291 285 281 280 280 270 259 255 254 249 245 243 242 241 241 244 246 245 242 240 237 235 233 232 230 229 227 224 221 218 215 214 213 213 214 215 217 221
225 223 222 231 232 219 231 241 232 246 254 209 209 218 222 227 228 237 260 257 184 201 221 223 232 242 241 246 253 246 240 251 256 262 265 267 271 275 276 278 279 276 273 272 275 284 291 290 286 282 280 284 287 278 267 260 255 251 250 246 242 242 245 249 247 243 240 237 235 234 233 231 229 228 226 223 220 217 215 214 213 212 212 213 215 220
237 230 220 228 234 223 226 239 246 250 249 222 221 221 219 226 227 228 258 306 22 247 269 267 260 279 294 292 294 297 298 308 312 302 292 290 288 286 286 286 285 282 278 279 282 286 286 284 284 284 283 284 284 279 273 265 257 254 252 246 244 248 251 250 244 239 237 235 234 233 231 229 228 226 224 221 218 215 213 212 212 211 211 212 216 220
265 264 226 226 239 235 230 245 255 248 322 351 296 259 223 204 232 245 305 350 11 12 1 359 357 358 0 354 345 339 335 338 343 342 338 332 323 319 319 318 315 312 305 300 297 290 285 286 289 288 285 284 285 284 279 270 261 257 252 250 252 254 251 246 240 237 235 234 232 231 229 227 224 221 219 216 215 213 212 210 209 210 211 213 218 223
304 310 283 240 242 248 239 241 240 235 11 11 346 309 279 355 317 322 338 353 11 22 13 3 0 3 2 354 343 337 337 340 343 343 342 341 339 339 338 336 335 331 326 322 318 308 300 298 299 297 293 292 295 293 284 275 268 261 257 258 260 254 247 243 240 237 234 232 231 229 226 224 220 216 214 212 211 211 210 209 207 208 212 216 219 224
286 277 288 304 331 314 258 268 296 223 0 7 11 1 324 322 328 338 345 349 2 10 5 353 347 347 348 345 339 334 333 334 335 335 334 334 334 334 334 335 334 330 326 325 321 315 309 305 305 306 301 297 299 297 288 279 273 266 262 263 261 252 246 243 239 235 232 230 228 226 223 220 217 214 211 209 209 209 208 208 208 208 212 217 220 223
299 311 309 292 285 289 272 284 302 311 316 322 321 300 308 318 324 333 342 344 344 347 348 344 337 333 335 334 330 326 325 324 324 323 322 322 322 322 324 326 325 324 323 322 319 315 311 307 304 303 299 297 299 298 290 281 274 267 263 263 260 253 248 244 238 234 231 227 225 222 219 216 213 211 209 207 207 208 207 207 208 210 213 216 219 221
308 306 302 287 282 298 284 268 282 307 316 311 306 303 308 314 314 316 328 335 332 331 331 329 325 322 321 320 317 314 312 312 312 311 310 310 310 310 312 312 312 313 315 315 315 314 311 306 302 300 301 301 301 297 290 283 278 274 268 263 259 256 252 246 239 233 229 225 222 219 216 213 210 208 207 206 206 208 209 209 210 212 214 217 218 218
301 296 294 295 300 301 289 276 293 307 306 302 303 307 313 316 313 316 323 325 322 322 320 317 315 313 310 308 305 302 301 303 303 302 302 302 302 304 306 305 305 306 306 306 307 307 305 303 301 302 304 305 303 299 292 286 283 278 270 264 261 260 255 247 240 233 228 224 220 217 214 212 209 206 204 203 204 205 208 211 213 214 215 216 216 216
304 309 305 295 288 285 284 291 296 294 292 292 295 307 320 323 316 314 317 317 316 315 313 312 311 309 307 304 301 298 297 296 295 294 296 298 299 300 301 301 302 302 301 301 302 301 300 299 299 301 302 302 302 300 294 289 284 276 269 265 264 262 257 248 240 234 229 224 220 216 213 211 209 205 202 201 202 204 206 209 212 214 216 217 219 219
292 296 292 288 289 285 282 291 297 293 293 297 300 307 316 315 311 311 313 314 314 313 314 316 317 316 315 312 309 305 300 298 298 297 297 298 299 300 301 301 301 301 300 300 299 298 296 296 297 298 298 298 298 296 294 292 286 277 270 267 264 262 257 249 240 233 228 223 219 216 212 209 208 206 203 201 201 203 206 209 212 214 215 216 217 217
278 278 280 286 289 284 287 314 321 312 301 300 303 307 310 309 310 313 315 316 319 322 325 327 326 325 324 322 321 318 312 309 309 309 306 304 303 303 304 304 303 302 302 301 299 297 295 294 295 295 295 294 292 290 290 291 286 277 271 267 264 261 257 249 239 231 226 222 219 215 211 207 206 205 203 201 200 200 202 205 209 212 213 212 210 210
260 268 278 282 284 285 292 301 300 294 288 293 300 307 312 314 319 324 324 323 324 326 327 327 325 322 320 318 317 315 312 311 311 310 308 306 305 305 306 305 304 303 302 301 300 298 296 295 294 293 292 292 290 288 288 287 283 279 275 270 265 261 257 249 241 233 227 222 219 215 211 207 204 202 201 200 201 201 200 200 200 201 204 206 206 206